Tracking 18794 objects as of 23-September-2017
HD Live streaming from Space Station
objects crossing your sky now

INTELSAT 2-F4

Track INTELSAT 2-F4 now!
INTELSAT 2-F4 is classified as:


NORAD ID: 2969
Int'l Code: 1967-094A
Perigee: 35,747.0 km
Apogee: 35,883.1 km
Inclination: 3.6 °
Period: 1,437.2 minutes
Semi major axis: 42186 km
RCS: 2.5118 m2 (large)
Launch date: September 28, 1967
Source: International Telecommunications Satellite Organization (ITSO)
Launch site: AIR FORCE EASTERN TEST RANGE (AFETR)
aabbcc
Your satellite tracking list
Your tracking list is empty





NASA's NSSDC Master Catalog

Two Line Element Set (TLE):
1  2969U 67094A   17265.62823637 +.00000101 +00000-0 +00000-0 0  9992
2  2969 003.6276 297.0008 0016128 240.8715 263.0168 01.00195736083338
Source of the keplerian elements: AFSPC